Hourly Weather Bolshie Kopeny

Today, 5 August, Thursday

Time Temperature Precipitation Wind Pressure Humidity
00:00 +20°C° 0 mm 1 mps 751 mmHg 78%
01:00 +20°C° 0 mm 1 mps 751 mmHg 77%
02:00 +19°C° 0 mm 1 mps 751 mmHg 76%
03:00 +19°C° 0 mm 1 mps 751 mmHg 76%
04:00 +19°C° 0 mm 1 mps 751 mmHg 72%
05:00 +20°C° 0 mm 1 mps 752 mmHg 69%
06:00 +20°C° 0 mm 1 mps 752 mmHg 65%
07:00 +21°C° 0 mm 2 mps 752 mmHg 57%
08:00 +25°C° 0 mm 2 mps 752 mmHg 48%
09:00 +27°C° 0 mm 2 mps 752 mmHg 40%
10:00 +28°C° 0 mm 2 mps 752 mmHg 37%
11:00 +29°C° 0 mm 3 mps 752 mmHg 34%
12:00 +30°C° 0 mm 3 mps 752 mmHg 30%
13:00 +30°C° 0 mm 3 mps 751 mmHg 30%
14:00 +30°C° 0 mm 3 mps 751 mmHg 29%
15:00 +30°C° 0 mm 4 mps 751 mmHg 28%
16:00 +30°C° 0 mm 3 mps 751 mmHg 29%
17:00 +30°C° 0 mm 3 mps 751 mmHg 30%
18:00 +29°C° 0 mm 2 mps 751 mmHg 31%
19:00 +27°C° 0 mm 2 mps 751 mmHg 36%
20:00 +25°C° 0 mm 2 mps 751 mmHg 41%
21:00 +23°C° 0 mm 2 mps 751 mmHg 46%
22:00 +21°C° 0 mm 2 mps 751 mmHg 47%
23:00 +21°C° 0 mm 2 mps 751 mmHg 48%

Tomorrow, 6 August, Friday

Time Temperature Precipitation Wind Pressure Humidity
00:00 +20°C° 0 mm 2 mps 751 mmHg 49%
01:00 +20°C° 0 mm 2 mps 751 mmHg 50%
02:00 +19°C° 0 mm 2 mps 751 mmHg 51%
03:00 +19°C° 0 mm 2 mps 751 mmHg 53%
04:00 +19°C° 0 mm 2 mps 751 mmHg 53%
05:00 +20°C° 0 mm 2 mps 751 mmHg 53%
06:00 +20°C° 0 mm 2 mps 752 mmHg 54%
07:00 +23°C° 0 mm 2 mps 752 mmHg 48%
08:00 +25°C° 0 mm 3 mps 752 mmHg 41%
09:00 +28°C° 0 mm 3 mps 752 mmHg 35%
10:00 +29°C° 0 mm 3 mps 752 mmHg 33%
11:00 +30°C° 0 mm 3 mps 751 mmHg 31%
12:00 +31°C° 0 mm 3 mps 751 mmHg 29%
13:00 +31°C° 0 mm 3 mps 751 mmHg 28%
14:00 +31°C° 0 mm 3 mps 751 mmHg 27%
15:00 +33°C° 0 mm 4 mps 750 mmHg 26%
16:00 +32°C° 0 mm 4 mps 750 mmHg 27%
17:00 +30°C° 0 mm 4 mps 750 mmHg 29%
18:00 +30°C° 0 mm 4 mps 750 mmHg 30%
19:00 +28°C° 0 mm 3 mps 750 mmHg 35%
20:00 +26°C° 0 mm 3 mps 750 mmHg 39%
21:00 +24°C° 0 mm 3 mps 751 mmHg 44%
22:00 +22°C° 0 mm 3 mps 750 mmHg 45%
23:00 +22°C° 0 mm 3 mps 750 mmHg 45%

Day after tomorrow, 7 August, Saturday

Time Temperature Precipitation Wind Pressure Humidity
00:00 +21°C° 0 mm 3 mps 750 mmHg 46%
01:00 +21°C° 0 mm 3 mps 750 mmHg 46%
02:00 +20°C° 0 mm 3 mps 750 mmHg 46%
03:00 +20°C° 0 mm 3 mps 750 mmHg 47%
04:00 +20°C° 0 mm 3 mps 750 mmHg 47%
05:00 +20°C° 0 mm 3 mps 750 mmHg 47%
06:00 +20°C° 0 mm 3 mps 750 mmHg 47%
07:00 +23°C° 0 mm 4 mps 750 mmHg 41%
08:00 +26°C° 0 mm 4 mps 751 mmHg 35%
09:00 +28°C° 0 mm 5 mps 751 mmHg 29%
10:00 +29°C° 0 mm 5 mps 750 mmHg 27%
11:00 +32°C° 0 mm 5 mps 750 mmHg 24%
12:00 +33°C° 0 mm 5 mps 750 mmHg 22%
13:00 +33°C° 0 mm 4 mps 750 mmHg 21%
14:00 +34°C° 0 mm 4 mps 750 mmHg 20%
15:00 +35°C° 0 mm 4 mps 749 mmHg 19%
16:00 +34°C° 0 mm 4 mps 749 mmHg 20%
17:00 +33°C° 0 mm 3 mps 749 mmHg 22%
18:00 +33°C° 0 mm 3 mps 749 mmHg 23%
19:00 +30°C° 0 mm 3 mps 749 mmHg 25%
20:00 +28°C° 0 mm 3 mps 749 mmHg 28%
21:00 +26°C° 0 mm 3 mps 749 mmHg 30%
22:00 +25°C° 0 mm 3 mps 750 mmHg 32%
23:00 +25°C° 0 mm 3 mps 750 mmHg 33%

8 August, Sunday

Time Temperature Precipitation Wind Pressure Humidity
00:00 +24°C° 0 mm 3 mps 750 mmHg 35%
01:00 +24°C° 0 mm 3 mps 750 mmHg 36%
02:00 +22°C° 0 mm 4 mps 750 mmHg 37%
03:00 +22°C° 0 mm 4 mps 750 mmHg 38%
04:00 +22°C° 0 mm 3 mps 750 mmHg 39%
05:00 +22°C° 0 mm 3 mps 750 mmHg 39%
06:00 +22°C° 0 mm 3 mps 750 mmHg 40%
07:00 +26°C° 0 mm 4 mps 751 mmHg 35%
08:00 +28°C° 0 mm 5 mps 751 mmHg 30%
09:00 +32°C° 0 mm 6 mps 751 mmHg 25%
10:00 +33°C° 0 mm 6 mps 751 mmHg 23%
11:00 +35°C° 0 mm 5 mps 751 mmHg 21%
12:00 +36°C° 0 mm 5 mps 751 mmHg 19%
13:00 +35°C° 0 mm 5 mps 751 mmHg 19%
14:00 +35°C° 0 mm 4 mps 751 mmHg 20%
15:00 +35°C° 0 mm 3 mps 751 mmHg 21%
16:00 +34°C° 0 mm 3 mps 751 mmHg 22%
17:00 +34°C° 0 mm 3 mps 751 mmHg 23%
18:00 +33°C° 0 mm 3 mps 751 mmHg 24%
19:00 +31°C° 0 mm 3 mps 751 mmHg 26%
20:00 +29°C° 0 mm 3 mps 751 mmHg 28%
21:00 +28°C° 0 mm 3 mps 752 mmHg 29%
22:00 +28°C° 0 mm 3 mps 752 mmHg 30%
23:00 +28°C° 0 mm 3 mps 752 mmHg 32%

9 August, Monday

Time Temperature Precipitation Wind Pressure Humidity
00:00 +28°C° 0 mm 3 mps 752 mmHg 33%
01:00 +28°C° 0 mm 3 mps 752 mmHg 33%
02:00 +28°C° 0 mm 4 mps 752 mmHg 33%
03:00 +28°C° 0 mm 4 mps 752 mmHg 34%
04:00 +28°C° 0 mm 5 mps 752 mmHg 35%
05:00 +28°C° 0 mm 5 mps 752 mmHg 37%
06:00 +28°C° 0 mm 6 mps 752 mmHg 38%
07:00 +29°C° 0 mm 6 mps 752 mmHg 35%
08:00 +30°C° 0 mm 6 mps 752 mmHg 33%
09:00 +33°C° 0 mm 7 mps 752 mmHg 30%
10:00 +34°C° 0 mm 7 mps 752 mmHg 28%
11:00 +35°C° 0 mm 7 mps 752 mmHg 26%
12:00 +36°C° 0 mm 7 mps 752 mmHg 24%
13:00 +36°C° 0 mm 7 mps 752 mmHg 23%
14:00 +36°C° 0 mm 6 mps 752 mmHg 23%
15:00 +36°C° 0 mm 6 mps 752 mmHg 22%
16:00 +35°C° 0 mm 6 mps 752 mmHg 23%
17:00 +35°C° 0 mm 6 mps 751 mmHg 25%
18:00 +34°C° 0 mm 5 mps 751 mmHg 26%
19:00 +33°C° 0 mm 5 mps 751 mmHg 27%
20:00 +32°C° 0 mm 5 mps 751 mmHg 29%
21:00 +30°C° 0 mm 5 mps 751 mmHg 30%
22:00 +29°C° 0 mm 5 mps 751 mmHg 30%
23:00 +29°C° 0 mm 5 mps 751 mmHg 30%

10 August, Tuesday

Time Temperature Precipitation Wind Pressure Humidity
00:00 +28°C° 0 mm 6 mps 751 mmHg 31%
01:00 +27°C° 0 mm 5 mps 751 mmHg 32%
02:00 +26°C° 0 mm 4 mps 751 mmHg 34%
03:00 +25°C° 0 mm 3 mps 751 mmHg 35%
04:00 +25°C° 0 mm 3 mps 751 mmHg 36%
05:00 +25°C° 0 mm 3 mps 751 mmHg 36%
06:00 +25°C° 0 mm 3 mps 750 mmHg 37%
07:00 +26°C° 0 mm 4 mps 751 mmHg 35%
08:00 +27°C° 0 mm 4 mps 751 mmHg 33%
09:00 +29°C° 0 mm 4 mps 751 mmHg 31%
10:00 +29°C° 0 mm 3 mps 751 mmHg 31%
11:00 +29°C° 0 mm 3 mps 751 mmHg 31%
12:00 +29°C° 0 mm 2 mps 751 mmHg 32%
13:00 +27°C° 0.2 mm 3 mps 751 mmHg 43%
14:00 +25°C° 0.2 mm 3 mps 751 mmHg 54%
15:00 +22°C° 0.2 mm 4 mps 751 mmHg 66%
16:00 +22°C° 0 mm 3 mps 751 mmHg 68%
17:00 +21°C° 0 mm 3 mps 751 mmHg 69%
18:00 +21°C° 0 mm 3 mps 750 mmHg 71%
19:00 +21°C° 0 mm 3 mps 750 mmHg 72%
20:00 +21°C° 0 mm 3 mps 750 mmHg 72%
21:00 +21°C° 0 mm 3 mps 749 mmHg 73%
22:00 +20°C° 0 mm 3 mps 749 mmHg 73%
23:00 +20°C° 0 mm 3 mps 749 mmHg 73%
Show more

We Need Your Consent

Meteoprog and our Service Providers may store and access personal data such as cookies, device identifiers or other similar technologies on your device and process such data to personalise content and ads, as well as provide social media features and to analyse the traffic.

  • Store and/or access information on your device

    Cookies, device identifiers or other information can be stored or accessed on your device for the purposes indicated above.

  • Personalised ads and content, ad and content measurement, audience insights, and products development

    Ads and content can be personalised based on a profile. More data can be added to better personalise ads and content. Ad and content performance can be measured. Insights about the audience who saw the ads and content can be derived. Such data can be used to develop or improve user’s experience, systems and software.

By clicking ‘I Agree’ you will allow the use of indicated cookies, device identifiers, web beacons or other similar technologies. Your settings can be changed in the browser on your device.

For certain purposes, legitimate interests may be relied on, rather than consent. You can read more about this in our Privacy and Cookie Policy.